Location: Grand Mazuras
(45.9128°N, 1.7636°E)
Time: 22:14:54
(UTC+00:00)

N. Korean satellite - Pass Details

Date: 07 October 2021
Orbit: 450 x 495 km, 97.3° (Epoch: 21 October)

Event Time Altitude Azimuth Distance (km) Brightness Sun altitude
Rises 04:09:57 0° 30° (NNE) 2,570 10.9 -19.7°
Reaches altitude 10° 04:12:46 10° 55° (NE) 1,689 10.3 -19.2°
Maximum altitude 04:14:55 15° 91° (E) 1,405 9.9 -18.9°
Drops below altitude 10° 04:17:05 10° 128° (SE) 1,689 9.8 -18.5°
Sets 04:19:53 0° 152° (SSE) 2,568 10.5 -18.0°
